Find Starlink 2655

NORAD ID: 48449 Int'l Des: 2021-040 Owner: SPXS Country: US Constellation: starlink operational
LEOCIRCULAR

現在のビュー

3D地球を読み込み中...

About Starlink 2655

Starlink 2655 (NORAD 48449) is a starlink constellation satellite (v1.0) launched May 9, 2021 by SPXS of US. It operates in LEO, CIRCULAR orbit with a mass of 260.00 kg.

次回通過

Passes for default location (London). Set your location on the main map for personalized predictions.

高度履歴

Loading altitude history...

軌道要素

1 48449U 21040X 26263.95191937 .00024494 00000-0 77304-3 0 9996
2 48449 53.1603 349.3596 0002179 31.2950 328.8182 15.32738174296603
Epoch: Sep 20, 2026 • Age: 17 hours

現在のステータス

高度 469.4 km
遠地点 / 近地点 N/A
速度 7.63 km/s
衛星直下点 -10.57°S, 97.44°E
打ち上げ日 May 9, 2021
運用期間 5.3 years
タイプ internet

技術仕様

分類 Payload
質量 260.00 kg
乾燥質量 248.00 kg
長さ 0.20 m
スパン 9.00 m
形状 ? Box + pan
製造者 SPXS
バスタイプ Starlink
フェーズステータス In Orbit
所有者/国 SPXS/US

Most Searched